Notices

What's New in latest Release from April 7th, 2021:

- Updated Glossary, including Speed of Maximum Gust, and Total Hourly Precipitation

- Updated national and regional climate services offices contacts and prices information

- Addition of station inventory lists for 1981-2010, 1971-2000, and 1961-1990 Normals.

If you haven't already, please take our survey and provide feedback about our website: https://eccc.sondage-survey.ca/f/LanguageSelection.aspx?s=442ca660-fcf1-47c0-95a9-59707d6fd709

Hourly Data Report for March 17, 2012

HALIFAX STANFIELD INT'L A
NOVA SCOTIA

44°52'48.060" N
63°30'00.050" W
145.40 m
8202250
71395
YHZ

Download Data

Hourly Data (March 2012)
Hourly Data Report for March 17, 2012
TIME
LST
Temp Definition
°C
Dew Point Definition
°C
Rel Hum Definition
%
Precip. Amount Definition
mm

Wind Dir Definition
10's deg

Wind Spd Definition
km/h
Visibility Definition
km
Stn Press Definition
kPa
Hmdx Definition


Wind Chill Definition


Weather Definition


00:00 0.2 -0.1 98   27 7 1.6 100.06     Snow
01:00 0.2 -0.1 98   27 6 1.6 100.04     Snow
02:00 0.2 -0.1 98   25 4 2.4 100.01     Snow,Fog
03:00 0.2 -0.1 98   31 6 1.6 99.98     Snow,Fog
04:00 0.1 -0.1 99   32 9 1.0 99.98     Drizzle,Fog
05:00 0.1 -0.1 99   32 19 0.8 100.04     Drizzle,Fog
06:00 0.1 -0.2 98   34 15 2.4 100.11     Fog
07:00 0.1 -0.1 99   34 17 3.2 100.19     Fog
08:00 0.3 0.0 98   34 15 3.2 100.26     Fog
09:00 0.8 0.5 98   33 15 3.2 100.36     Fog
10:00 0.9 0.5 97   35 20 19.3 100.42     Cloudy
11:00 1.5 0.7 94   34 24 24.1 100.49     Cloudy
12:00 1.9 -0.2 86   36 22 24.1 100.55     Mostly Cloudy
13:00 3.4 0.0 78   32 15 24.1 100.55     Mostly Cloudy
14:00 5.0 0.1 71   32 17 24.1 100.53     Mainly Clear
15:00 6.7 0.6 65   31 13 24.1 100.54     Mainly Clear
16:00 7.2 1.3 66   30 13 24.1 100.56     Mainly Clear
17:00 6.7 0.7 66   30 13 24.1 100.58     Mostly Cloudy
18:00 3.9 0.8 80   28 9 24.1 100.64     Mostly Cloudy
19:00 3.5 -0.4 76   27 9 24.1 100.67     Mostly Cloudy
20:00 2.7 -0.9 77   25 6 24.1 100.69     Mostly Cloudy
21:00 3.7 -0.8 72   26 11 24.1 100.74     Mostly Cloudy
22:00 4.1 -1.8 65   26 9 24.1 100.74     Mostly Cloudy
23:00 2.1 -1.4 78   25 7 24.1 100.73     Mostly Cloudy

Notes on Data Quality.

Legend

  • E = Estimated
  • M = Missing
  • NA = Not Available*
  • [empty] = Indicates an unobserved value
Date modified: